Year,Month,Day,Hour,Minute,Value (Times are PST for temperature in C)
2008,02,22,00,00,0.70
2008,02,22,00,01,0.70
2008,02,22,00,02,0.70
2008,02,22,00,03,0.70
2008,02,22,00,04,0.70
2008,02,22,00,05,0.80
2008,02,22,00,06,0.80
2008,02,22,00,07,0.80
2008,02,22,00,08,0.80
2008,02,22,00,09,0.80
2008,02,22,00,10,0.80
2008,02,22,00,11,0.80
2008,02,22,00,12,0.80
2008,02,22,00,13,0.80
2008,02,22,00,14,0.80
2008,02,22,00,15,0.80
2008,02,22,00,16,0.80
2008,02,22,00,17,0.80
2008,02,22,00,18,0.80
2008,02,22,00,19,0.80
2008,02,22,00,20,0.80
2008,02,22,00,21,0.80
2008,02,22,00,22,0.80
2008,02,22,00,23,0.80
2008,02,22,00,24,0.80
2008,02,22,00,25,0.80
2008,02,22,00,26,0.90
2008,02,22,00,27,0.90
2008,02,22,00,28,0.90
2008,02,22,00,29,0.90
2008,02,22,00,30,0.90
2008,02,22,00,31,0.90
2008,02,22,00,32,0.90
2008,02,22,00,33,0.90
2008,02,22,00,34,0.90
2008,02,22,00,35,0.90
2008,02,22,00,36,0.80
2008,02,22,00,37,0.80
2008,02,22,00,38,0.80
2008,02,22,00,39,0.80
2008,02,22,00,40,0.80
2008,02,22,00,41,0.80
2008,02,22,00,42,0.80
2008,02,22,00,43,0.80
2008,02,22,00,44,0.80
2008,02,22,00,45,0.80
2008,02,22,00,46,0.80
2008,02,22,00,47,0.80
2008,02,22,00,48,0.80
2008,02,22,00,49,0.80
2008,02,22,00,50,0.80
2008,02,22,00,51,0.80
2008,02,22,00,52,0.80
2008,02,22,00,53,0.80
2008,02,22,00,54,0.80
2008,02,22,00,55,0.80
2008,02,22,00,56,0.80
2008,02,22,00,57,0.80
2008,02,22,00,58,0.80
2008,02,22,00,59,0.80
2008,02,22,01,00,0.80
2008,02,22,01,01,0.80
2008,02,22,01,02,0.80
2008,02,22,01,03,0.80
2008,02,22,01,04,0.80
2008,02,22,01,05,0.80
2008,02,22,01,06,0.80
2008,02,22,01,07,0.80
2008,02,22,01,08,0.80
2008,02,22,01,09,0.80
2008,02,22,01,10,0.80
2008,02,22,01,11,0.80
2008,02,22,01,12,0.80
2008,02,22,01,13,0.80
2008,02,22,01,14,0.80
2008,02,22,01,15,0.80
2008,02,22,01,16,0.80
2008,02,22,01,17,0.80
2008,02,22,01,18,0.80
2008,02,22,01,19,0.80
2008,02,22,01,20,0.80
2008,02,22,01,21,0.80
2008,02,22,01,22,0.80
2008,02,22,01,23,0.80
2008,02,22,01,24,0.80
2008,02,22,01,25,0.80
2008,02,22,01,26,0.80
2008,02,22,01,27,0.90
2008,02,22,01,28,0.90
2008,02,22,01,29,0.90
2008,02,22,01,30,0.90
2008,02,22,01,31,1.00
2008,02,22,01,32,1.00
2008,02,22,01,33,1.00
2008,02,22,01,34,1.10
2008,02,22,01,35,1.10
2008,02,22,01,36,1.10
2008,02,22,01,37,1.20
2008,02,22,01,38,1.20
2008,02,22,01,39,1.20
2008,02,22,01,40,1.30
2008,02,22,01,41,1.30
2008,02,22,01,42,1.30
2008,02,22,01,43,1.30
2008,02,22,01,44,1.30
2008,02,22,01,45,1.30
2008,02,22,01,46,1.30
2008,02,22,01,47,1.30
2008,02,22,01,48,1.40
2008,02,22,01,49,1.40
2008,02,22,01,50,1.40
2008,02,22,01,51,1.40
2008,02,22,01,52,1.40
2008,02,22,01,53,1.40
2008,02,22,01,54,1.40
2008,02,22,01,55,1.40
2008,02,22,01,56,1.40
2008,02,22,01,57,1.40
2008,02,22,01,58,1.40
2008,02,22,01,59,1.40
2008,02,22,02,00,1.40
2008,02,22,02,01,1.40
2008,02,22,02,02,1.40
2008,02,22,02,03,1.40
2008,02,22,02,04,1.40
2008,02,22,02,05,1.40
2008,02,22,02,06,1.40
2008,02,22,02,07,1.40
2008,02,22,02,08,1.40
2008,02,22,02,09,1.50
2008,02,22,02,10,1.50
2008,02,22,02,11,1.50
2008,02,22,02,12,1.50
2008,02,22,02,13,1.50
2008,02,22,02,14,1.50
2008,02,22,02,15,1.50
2008,02,22,02,16,1.60
2008,02,22,02,17,1.60
2008,02,22,02,18,1.70
2008,02,22,02,19,1.70
2008,02,22,02,20,1.70
2008,02,22,02,21,1.70
2008,02,22,02,22,1.70
2008,02,22,02,23,1.70
2008,02,22,02,24,1.80
2008,02,22,02,25,1.80
2008,02,22,02,26,1.80
2008,02,22,02,27,1.80
2008,02,22,02,28,1.80
2008,02,22,02,29,1.80
2008,02,22,02,30,1.80
2008,02,22,02,31,1.80
2008,02,22,02,32,1.80
2008,02,22,02,33,1.80
2008,02,22,02,34,1.80
2008,02,22,02,35,1.80
2008,02,22,02,36,1.80
2008,02,22,02,37,1.90
2008,02,22,02,38,1.90
2008,02,22,02,39,1.90
2008,02,22,02,40,1.90
2008,02,22,02,41,1.90
2008,02,22,02,42,2.00
2008,02,22,02,43,2.00
2008,02,22,02,44,2.00
2008,02,22,02,45,2.00
2008,02,22,02,46,2.00
2008,02,22,02,47,2.00
2008,02,22,02,48,2.00
2008,02,22,02,49,2.00
2008,02,22,02,50,2.00
2008,02,22,02,51,2.10
2008,02,22,02,52,2.10
2008,02,22,02,53,2.20
2008,02,22,02,54,2.20
2008,02,22,02,55,2.20
2008,02,22,02,56,2.20
2008,02,22,02,57,2.20
2008,02,22,02,58,2.20
2008,02,22,02,59,2.20
2008,02,22,03,00,2.20
2008,02,22,03,01,2.20
2008,02,22,03,02,2.20
2008,02,22,03,03,2.20
2008,02,22,03,04,2.20
2008,02,22,03,05,2.20
2008,02,22,03,06,2.20
2008,02,22,03,07,2.20
2008,02,22,03,08,2.20
2008,02,22,03,09,2.30
2008,02,22,03,10,2.30
2008,02,22,03,11,2.30
2008,02,22,03,12,2.30
2008,02,22,03,13,2.30
2008,02,22,03,14,2.30
2008,02,22,03,15,2.30
2008,02,22,03,16,2.30
2008,02,22,03,17,2.30
2008,02,22,03,18,2.30
2008,02,22,03,19,2.30
2008,02,22,03,20,2.30
2008,02,22,03,21,2.30
2008,02,22,03,22,2.30
2008,02,22,03,23,2.40
2008,02,22,03,24,2.40
2008,02,22,03,25,2.40
2008,02,22,03,26,2.40
2008,02,22,03,27,2.40
2008,02,22,03,28,2.40
2008,02,22,03,29,2.50
2008,02,22,03,30,2.50
2008,02,22,03,31,2.50
2008,02,22,03,32,2.50
2008,02,22,03,33,2.50
2008,02,22,03,34,2.50
2008,02,22,03,35,2.50
2008,02,22,03,36,2.50
2008,02,22,03,37,2.50
2008,02,22,03,38,2.50
2008,02,22,03,39,2.60
2008,02,22,03,40,2.60
2008,02,22,03,41,2.60
2008,02,22,03,42,2.60
2008,02,22,03,43,2.60
2008,02,22,03,44,2.60
2008,02,22,03,45,2.60
2008,02,22,03,46,2.60
2008,02,22,03,47,2.60
2008,02,22,03,48,2.60
2008,02,22,03,49,2.70
2008,02,22,03,50,2.70
2008,02,22,03,51,2.70
2008,02,22,03,52,2.70
2008,02,22,03,53,2.70
2008,02,22,03,54,2.70
2008,02,22,03,55,2.70
2008,02,22,03,56,2.70
2008,02,22,03,57,2.70
2008,02,22,03,58,2.70
2008,02,22,03,59,2.70
2008,02,22,04,00,2.80
2008,02,22,04,01,2.80
2008,02,22,04,02,2.80
2008,02,22,04,03,2.80
2008,02,22,04,04,2.90
2008,02,22,04,05,2.90
2008,02,22,04,06,2.90
2008,02,22,04,07,2.90
2008,02,22,04,08,2.90
2008,02,22,04,09,2.90
2008,02,22,04,10,2.90
2008,02,22,04,11,2.90
2008,02,22,04,12,2.90
2008,02,22,04,13,2.90
2008,02,22,04,14,2.90
2008,02,22,04,15,3.00
2008,02,22,04,16,3.10
2008,02,22,04,17,3.10
2008,02,22,04,18,3.10
2008,02,22,04,19,3.10
2008,02,22,04,20,3.10
2008,02,22,04,21,3.10
2008,02,22,04,22,3.10
2008,02,22,04,23,3.10
2008,02,22,04,24,3.10
2008,02,22,04,25,3.10
2008,02,22,04,26,3.10
2008,02,22,04,27,3.10
2008,02,22,04,28,3.10
2008,02,22,04,29,3.10
2008,02,22,04,30,3.10
2008,02,22,04,31,3.10
2008,02,22,04,32,3.10
2008,02,22,04,33,3.10
2008,02,22,04,34,3.10
2008,02,22,04,35,3.10
2008,02,22,04,36,3.10
2008,02,22,04,37,3.10
2008,02,22,04,38,3.10
2008,02,22,04,39,3.10
2008,02,22,04,40,3.10
2008,02,22,04,41,3.20
2008,02,22,04,42,3.20
2008,02,22,04,43,3.20
2008,02,22,04,44,3.20
2008,02,22,04,45,3.20
2008,02,22,04,46,3.20
2008,02,22,04,47,3.20
2008,02,22,04,48,3.20
2008,02,22,04,49,3.20
2008,02,22,04,50,3.20
2008,02,22,04,51,3.20
2008,02,22,04,52,3.20
2008,02,22,04,53,3.20
2008,02,22,04,54,3.20
2008,02,22,04,55,3.20
2008,02,22,04,56,3.20
2008,02,22,04,57,3.20
2008,02,22,04,58,3.20
2008,02,22,04,59,3.20
2008,02,22,05,00,3.20
2008,02,22,05,01,3.20
2008,02,22,05,02,3.20
2008,02,22,05,03,3.20
2008,02,22,05,04,3.20
2008,02,22,05,05,3.20
2008,02,22,05,06,3.30
2008,02,22,05,07,3.30
2008,02,22,05,08,3.30
2008,02,22,05,09,3.30
2008,02,22,05,10,3.30
2008,02,22,05,11,3.30
2008,02,22,05,12,3.30
2008,02,22,05,13,3.30
2008,02,22,05,14,3.30
2008,02,22,05,15,3.30
2008,02,22,05,16,3.30
2008,02,22,05,17,3.30
2008,02,22,05,18,3.30
2008,02,22,05,19,3.30
2008,02,22,05,20,3.20
2008,02,22,05,21,3.20
2008,02,22,05,22,3.20
2008,02,22,05,23,3.20
2008,02,22,05,24,3.20
2008,02,22,05,25,3.20
2008,02,22,05,26,3.30
2008,02,22,05,27,3.30
2008,02,22,05,28,3.30
2008,02,22,05,29,3.30
2008,02,22,05,30,3.30
2008,02,22,05,31,3.30
2008,02,22,05,32,3.30
2008,02,22,05,33,3.30
2008,02,22,05,34,3.30
2008,02,22,05,35,3.30
2008,02,22,05,36,3.30
2008,02,22,05,37,3.20
2008,02,22,05,38,3.20
2008,02,22,05,39,3.20
2008,02,22,05,40,3.20
2008,02,22,05,41,3.20
2008,02,22,05,42,3.20
2008,02,22,05,43,3.20
2008,02,22,05,44,3.20
2008,02,22,05,45,3.20
2008,02,22,05,46,3.20
2008,02,22,05,47,3.10
2008,02,22,05,48,3.10
2008,02,22,05,49,3.10
2008,02,22,05,50,3.10
2008,02,22,05,51,3.10
2008,02,22,05,52,3.10
2008,02,22,05,53,3.20
2008,02,22,05,54,3.10
2008,02,22,05,55,3.10
2008,02,22,05,56,3.10
2008,02,22,05,57,3.10
2008,02,22,05,58,3.10
2008,02,22,05,59,3.10
2008,02,22,06,00,3.10
2008,02,22,06,01,3.10
2008,02,22,06,02,3.10
2008,02,22,06,03,3.10
2008,02,22,06,04,3.10
2008,02,22,06,05,3.10
2008,02,22,06,06,3.10
2008,02,22,06,07,3.10
2008,02,22,06,08,3.10
2008,02,22,06,09,3.10
2008,02,22,06,10,3.10
2008,02,22,06,11,3.10
2008,02,22,06,12,3.10
2008,02,22,06,13,3.10
2008,02,22,06,14,3.10
2008,02,22,06,15,3.10
2008,02,22,06,16,3.10
2008,02,22,06,17,3.20
2008,02,22,06,18,3.20
2008,02,22,06,19,3.20
2008,02,22,06,20,3.30
2008,02,22,06,21,3.30
2008,02,22,06,22,3.30
2008,02,22,06,23,3.30
2008,02,22,06,24,3.50
2008,02,22,06,25,3.50
2008,02,22,06,26,3.60
2008,02,22,06,27,3.70
2008,02,22,06,28,3.80
2008,02,22,06,29,3.80
2008,02,22,06,30,3.90
2008,02,22,06,31,3.90
2008,02,22,06,32,3.90
2008,02,22,06,33,3.90
2008,02,22,06,34,3.90
2008,02,22,06,35,3.90
2008,02,22,06,36,3.90
2008,02,22,06,37,3.90
2008,02,22,06,38,3.90
2008,02,22,06,39,3.90
2008,02,22,06,40,3.90
2008,02,22,06,41,3.90
2008,02,22,06,42,3.90
2008,02,22,06,43,3.90
2008,02,22,06,44,3.80
2008,02,22,06,45,3.80
2008,02,22,06,46,3.80
2008,02,22,06,47,3.80
2008,02,22,06,48,3.80
2008,02,22,06,49,3.80
2008,02,22,06,50,3.80
2008,02,22,06,51,3.80
2008,02,22,06,52,3.80
2008,02,22,06,53,3.80
2008,02,22,06,54,3.80
2008,02,22,06,55,3.80
2008,02,22,06,56,3.80
2008,02,22,06,57,3.80
2008,02,22,06,58,3.80
2008,02,22,06,59,3.80
2008,02,22,07,00,3.80
2008,02,22,07,01,3.90
2008,02,22,07,02,3.90
2008,02,22,07,03,3.90
2008,02,22,07,04,4.00
2008,02,22,07,05,4.00
2008,02,22,07,06,4.00
2008,02,22,07,07,4.00
2008,02,22,07,08,4.00
2008,02,22,07,09,4.00
2008,02,22,07,10,4.00
2008,02,22,07,11,4.10
2008,02,22,07,12,4.10
2008,02,22,07,13,4.10
2008,02,22,07,14,4.10
2008,02,22,07,15,4.00
2008,02,22,07,16,4.00
2008,02,22,07,17,4.00
2008,02,22,07,18,4.00
2008,02,22,07,19,4.00
2008,02,22,07,20,3.90
2008,02,22,07,21,3.90
2008,02,22,07,22,3.90
2008,02,22,07,23,3.80
2008,02,22,07,24,3.80
2008,02,22,07,25,3.80
2008,02,22,07,26,3.80
2008,02,22,07,27,3.80
2008,02,22,07,28,3.80
2008,02,22,07,29,3.80
2008,02,22,07,30,3.70
2008,02,22,07,31,3.70
2008,02,22,07,32,3.70
2008,02,22,07,33,3.60
2008,02,22,07,34,3.60
2008,02,22,07,35,3.60
2008,02,22,07,36,3.60
2008,02,22,07,37,3.60
2008,02,22,07,38,3.60
2008,02,22,07,39,3.60
2008,02,22,07,40,3.60
2008,02,22,07,41,3.60
2008,02,22,07,42,3.60
2008,02,22,07,43,3.50
2008,02,22,07,44,3.50
2008,02,22,07,45,3.50
2008,02,22,07,46,3.50
2008,02,22,07,47,3.50
2008,02,22,07,48,3.50
2008,02,22,07,49,3.50
2008,02,22,07,50,3.50
2008,02,22,07,51,3.50
2008,02,22,07,52,3.50
2008,02,22,07,53,3.50
2008,02,22,07,54,3.50
2008,02,22,07,55,3.60
2008,02,22,07,56,3.60
2008,02,22,07,57,3.60
2008,02,22,07,58,3.60
2008,02,22,07,59,3.70
2008,02,22,08,00,3.70
2008,02,22,08,01,3.70
2008,02,22,08,02,3.70
2008,02,22,08,03,3.70
2008,02,22,08,04,3.70
2008,02,22,08,05,3.70
2008,02,22,08,06,3.70
2008,02,22,08,07,3.70
2008,02,22,08,08,3.70
2008,02,22,08,09,3.80
2008,02,22,08,10,3.80
2008,02,22,08,11,3.80
2008,02,22,08,12,3.80
2008,02,22,08,13,3.80
2008,02,22,08,14,3.80
2008,02,22,08,15,3.80
2008,02,22,08,16,3.80
2008,02,22,08,17,3.90
2008,02,22,08,18,3.90
2008,02,22,08,19,4.00
2008,02,22,08,20,4.00
2008,02,22,08,21,4.00
2008,02,22,08,22,4.10
2008,02,22,08,23,4.10
2008,02,22,08,24,4.20
2008,02,22,08,25,4.20
2008,02,22,08,26,4.20
2008,02,22,08,27,4.30
2008,02,22,08,28,4.30
2008,02,22,08,29,4.30
2008,02,22,08,30,4.40
2008,02,22,08,31,4.40
2008,02,22,08,32,4.40
2008,02,22,08,33,4.50
2008,02,22,08,34,4.50
2008,02,22,08,35,4.50
2008,02,22,08,36,4.50
2008,02,22,08,37,4.60
2008,02,22,08,38,4.60
2008,02,22,08,39,4.60
2008,02,22,08,40,4.70
2008,02,22,08,41,4.80
2008,02,22,08,42,4.90
2008,02,22,08,43,4.90
2008,02,22,08,44,5.00
2008,02,22,08,45,5.10
2008,02,22,08,46,5.20
2008,02,22,08,47,5.30
2008,02,22,08,48,5.40
2008,02,22,08,49,5.60
2008,02,22,08,50,5.70
2008,02,22,08,51,5.70
2008,02,22,08,52,5.80
2008,02,22,08,53,5.90
2008,02,22,08,54,5.90
2008,02,22,08,55,5.90
2008,02,22,08,56,6.00
2008,02,22,08,57,6.00
2008,02,22,08,58,6.10
2008,02,22,08,59,6.10
2008,02,22,09,00,6.20
2008,02,22,09,01,6.20
2008,02,22,09,02,6.20
2008,02,22,09,03,6.30
2008,02,22,09,04,6.40
2008,02,22,09,05,6.50
2008,02,22,09,06,6.60
2008,02,22,09,07,6.70
2008,02,22,09,08,6.80
2008,02,22,09,09,6.80
2008,02,22,09,10,6.90
2008,02,22,09,11,6.90
2008,02,22,09,12,7.00
2008,02,22,09,13,7.10
2008,02,22,09,14,7.10
2008,02,22,09,15,7.20
2008,02,22,09,16,7.30
2008,02,22,09,17,7.30
2008,02,22,09,18,7.40
2008,02,22,09,19,7.50
2008,02,22,09,20,7.50
2008,02,22,09,21,7.50
2008,02,22,09,22,7.60
2008,02,22,09,23,7.60
2008,02,22,09,24,7.70
2008,02,22,09,25,7.80
2008,02,22,09,26,7.80
2008,02,22,09,27,7.80
2008,02,22,09,28,7.90
2008,02,22,09,29,7.90
2008,02,22,09,30,8.00
2008,02,22,09,31,8.10
2008,02,22,09,32,8.10
2008,02,22,09,33,8.20
2008,02,22,09,34,8.20
2008,02,22,09,35,8.20
2008,02,22,09,36,8.20
2008,02,22,09,37,8.20
2008,02,22,09,38,8.20
2008,02,22,09,39,8.20
2008,02,22,09,40,8.20
2008,02,22,09,41,8.30
2008,02,22,09,42,8.30
2008,02,22,09,43,8.30
2008,02,22,09,44,8.30
2008,02,22,09,45,8.30
2008,02,22,09,46,8.40
2008,02,22,09,47,8.40
2008,02,22,09,48,8.40
2008,02,22,09,49,8.40
2008,02,22,09,50,8.40
2008,02,22,09,51,8.40
2008,02,22,09,52,8.40
2008,02,22,09,53,8.40
2008,02,22,09,54,8.40
2008,02,22,09,55,8.40
2008,02,22,09,56,8.30
2008,02,22,09,57,8.30
2008,02,22,09,58,8.30
2008,02,22,09,59,8.30
2008,02,22,10,00,8.30
2008,02,22,10,01,8.30
2008,02,22,10,02,8.30
2008,02,22,10,03,8.40
2008,02,22,10,04,8.40
2008,02,22,10,05,8.40
2008,02,22,10,06,8.40
2008,02,22,10,07,8.40
2008,02,22,10,08,8.40
2008,02,22,10,09,8.40
2008,02,22,10,10,8.50
2008,02,22,10,11,8.50
2008,02,22,10,12,8.50
2008,02,22,10,13,8.50
2008,02,22,10,14,8.60
2008,02,22,10,15,8.60
2008,02,22,10,16,8.70
2008,02,22,10,17,8.70
2008,02,22,10,18,8.70
2008,02,22,10,19,8.70
2008,02,22,10,20,8.70
2008,02,22,10,21,8.70
2008,02,22,10,22,8.70
2008,02,22,10,23,8.70
2008,02,22,10,24,8.70
2008,02,22,10,25,8.70
2008,02,22,10,26,8.80
2008,02,22,10,27,8.80
2008,02,22,10,28,8.90
2008,02,22,10,29,8.90
2008,02,22,10,30,8.90
2008,02,22,10,31,9.00
2008,02,22,10,32,9.00
2008,02,22,10,33,9.00
2008,02,22,10,34,9.10
2008,02,22,10,35,9.10
2008,02,22,10,36,9.20
2008,02,22,10,37,9.20
2008,02,22,10,38,9.20
2008,02,22,10,39,9.30
2008,02,22,10,40,9.40
2008,02,22,10,41,9.40
2008,02,22,10,42,9.40
2008,02,22,10,43,9.40
2008,02,22,10,44,9.40
2008,02,22,10,45,9.40
2008,02,22,10,46,9.30
2008,02,22,10,47,9.30
2008,02,22,10,48,9.30
2008,02,22,10,49,9.40
2008,02,22,10,50,9.40
2008,02,22,10,51,9.50
2008,02,22,10,52,9.50
2008,02,22,10,53,9.50
2008,02,22,10,54,9.50
2008,02,22,10,55,9.50
2008,02,22,10,56,9.50
2008,02,22,10,57,9.60
2008,02,22,10,58,9.60
2008,02,22,10,59,9.70
2008,02,22,11,00,9.70
2008,02,22,11,01,9.70
2008,02,22,11,02,9.70
2008,02,22,11,03,9.80
2008,02,22,11,04,9.80
2008,02,22,11,05,9.80
2008,02,22,11,06,9.80
2008,02,22,11,07,9.80
2008,02,22,11,08,9.90
2008,02,22,11,09,9.90
2008,02,22,11,10,10.00
2008,02,22,11,11,10.10
2008,02,22,11,12,10.10
2008,02,22,11,13,10.10
2008,02,22,11,14,10.10
2008,02,22,11,15,10.10
2008,02,22,11,16,10.20
2008,02,22,11,17,10.20
2008,02,22,11,18,10.20
2008,02,22,11,19,10.10
2008,02,22,11,20,10.10
2008,02,22,11,21,10.10
2008,02,22,11,22,10.10
2008,02,22,11,23,10.00
2008,02,22,11,24,9.90
2008,02,22,11,25,10.10
2008,02,22,11,26,10.10
2008,02,22,11,27,10.10
2008,02,22,11,28,10.20
2008,02,22,11,29,10.20
2008,02,22,11,30,10.20
2008,02,22,11,31,10.20
2008,02,22,11,32,10.20
2008,02,22,11,33,10.20
2008,02,22,11,34,10.20
2008,02,22,11,35,10.20
2008,02,22,11,36,10.20
2008,02,22,11,37,10.30
2008,02,22,11,38,10.30
2008,02,22,11,39,10.20
2008,02,22,11,40,10.20
2008,02,22,11,41,10.20
2008,02,22,11,42,10.10
2008,02,22,11,43,10.10
2008,02,22,11,44,10.10
2008,02,22,11,45,10.10
2008,02,22,11,46,10.10
2008,02,22,11,47,10.10
2008,02,22,11,48,10.10
2008,02,22,11,49,10.10
2008,02,22,11,50,10.10
2008,02,22,11,51,10.10
2008,02,22,11,52,10.10
2008,02,22,11,53,10.10
2008,02,22,11,54,10.10
2008,02,22,11,55,10.10
2008,02,22,11,56,10.20
2008,02,22,11,57,10.30
2008,02,22,11,58,10.40
2008,02,22,11,59,10.40
2008,02,22,12,00,10.40
2008,02,22,12,01,10.30
2008,02,22,12,02,10.30
2008,02,22,12,03,10.30
2008,02,22,12,04,10.30
2008,02,22,12,05,10.40
2008,02,22,12,06,10.40
2008,02,22,12,07,10.40
2008,02,22,12,08,10.60
2008,02,22,12,09,10.60
2008,02,22,12,10,10.70
2008,02,22,12,11,10.70
2008,02,22,12,12,10.70
2008,02,22,12,13,10.70
2008,02,22,12,14,10.70
2008,02,22,12,15,10.80
2008,02,22,12,16,10.80
2008,02,22,12,17,10.90
2008,02,22,12,18,10.90
2008,02,22,12,19,10.90
2008,02,22,12,20,10.90
2008,02,22,12,21,10.80
2008,02,22,12,22,10.80
2008,02,22,12,23,10.70
2008,02,22,12,24,10.70
2008,02,22,12,25,10.70
2008,02,22,12,26,10.70
2008,02,22,12,27,10.70
2008,02,22,12,28,10.70
2008,02,22,12,29,10.70
2008,02,22,12,30,10.80
2008,02,22,12,31,10.80
2008,02,22,12,32,10.90
2008,02,22,12,33,10.90
2008,02,22,12,34,11.10
2008,02,22,12,35,11.20
2008,02,22,12,36,11.30
2008,02,22,12,37,11.30
2008,02,22,12,38,11.40
2008,02,22,12,39,11.40
2008,02,22,12,40,11.50
2008,02,22,12,41,11.60
2008,02,22,12,42,11.60
2008,02,22,12,43,11.50
2008,02,22,12,44,11.40
2008,02,22,12,45,11.40
2008,02,22,12,46,11.30
2008,02,22,12,47,11.30
2008,02,22,12,48,11.30
2008,02,22,12,49,11.40
2008,02,22,12,50,11.40
2008,02,22,12,51,11.40
2008,02,22,12,52,11.40
2008,02,22,12,53,11.40
2008,02,22,12,54,11.40
2008,02,22,12,55,11.30
2008,02,22,12,56,11.30
2008,02,22,12,57,11.30
2008,02,22,12,58,11.40
2008,02,22,12,59,11.40
2008,02,22,13,00,11.50
2008,02,22,13,01,11.60
2008,02,22,13,02,11.60
2008,02,22,13,03,11.60
2008,02,22,13,04,11.60
2008,02,22,13,05,11.60
2008,02,22,13,06,11.60
2008,02,22,13,07,11.60
2008,02,22,13,08,11.70
2008,02,22,13,09,11.80
2008,02,22,13,10,11.80
2008,02,22,13,11,11.90
2008,02,22,13,12,11.90
2008,02,22,13,13,11.90
2008,02,22,13,14,11.90
2008,02,22,13,15,12.00
2008,02,22,13,16,12.00
2008,02,22,13,17,12.10
2008,02,22,13,18,12.20
2008,02,22,13,19,12.20
2008,02,22,13,20,12.30
2008,02,22,13,21,12.30
2008,02,22,13,22,12.30
2008,02,22,13,23,12.30
2008,02,22,13,24,12.30
2008,02,22,13,25,12.30
2008,02,22,13,26,12.30
2008,02,22,13,27,12.30
2008,02,22,13,28,12.30
2008,02,22,13,29,12.30
2008,02,22,13,30,12.40
2008,02,22,13,31,12.50
2008,02,22,13,32,12.50
2008,02,22,13,33,12.50
2008,02,22,13,34,12.50
2008,02,22,13,35,12.60
2008,02,22,13,36,12.60
2008,02,22,13,37,12.70
2008,02,22,13,38,12.70
2008,02,22,13,39,12.70
2008,02,22,13,40,12.70
2008,02,22,13,41,12.70
2008,02,22,13,42,12.70
2008,02,22,13,43,12.70
2008,02,22,13,44,12.70
2008,02,22,13,45,12.70
2008,02,22,13,46,12.70
2008,02,22,13,47,12.60
2008,02,22,13,48,12.60
2008,02,22,13,49,12.50
2008,02,22,13,50,12.50
2008,02,22,13,51,12.50
2008,02,22,13,52,12.60
2008,02,22,13,53,12.60
2008,02,22,13,54,12.70
2008,02,22,13,55,12.70
2008,02,22,13,56,12.70
2008,02,22,13,57,12.80
2008,02,22,13,58,12.70
2008,02,22,13,59,12.70
2008,02,22,14,00,12.70
2008,02,22,14,01,12.70
2008,02,22,14,02,12.70
2008,02,22,14,03,12.70
2008,02,22,14,04,12.80
2008,02,22,14,05,12.80
2008,02,22,14,06,12.90
2008,02,22,14,07,12.90
2008,02,22,14,08,13.00
2008,02,22,14,09,13.00
2008,02,22,14,10,13.10
2008,02,22,14,11,13.20
2008,02,22,14,12,13.20
2008,02,22,14,13,13.20
2008,02,22,14,14,13.20
2008,02,22,14,15,13.10
2008,02,22,14,16,13.10
2008,02,22,14,17,13.10
2008,02,22,14,18,13.10
2008,02,22,14,19,13.10
2008,02,22,14,20,13.10
2008,02,22,14,21,13.10
2008,02,22,14,22,13.20
2008,02,22,14,23,13.20
2008,02,22,14,24,13.20
2008,02,22,14,25,13.20
2008,02,22,14,26,13.20
2008,02,22,14,27,13.20
2008,02,22,14,28,13.20
2008,02,22,14,29,13.20
2008,02,22,14,30,13.20
2008,02,22,14,31,13.30
2008,02,22,14,32,13.30
2008,02,22,14,33,13.30
2008,02,22,14,34,13.30
2008,02,22,14,35,13.30
2008,02,22,14,36,13.30
2008,02,22,14,37,13.20
2008,02,22,14,38,13.10
2008,02,22,14,39,13.00
2008,02,22,14,40,13.00
2008,02,22,14,41,13.00
2008,02,22,14,42,13.00
2008,02,22,14,43,13.00
2008,02,22,14,44,12.90
2008,02,22,14,45,12.90
2008,02,22,14,46,12.90
2008,02,22,14,47,12.90
2008,02,22,14,48,12.90
2008,02,22,14,49,13.00
2008,02,22,14,50,13.00
2008,02,22,14,51,13.00
2008,02,22,14,52,13.10
2008,02,22,14,53,13.20
2008,02,22,14,54,13.20
2008,02,22,14,55,13.30
2008,02,22,14,56,13.30
2008,02,22,14,57,13.30
2008,02,22,14,58,13.30
2008,02,22,14,59,13.10
2008,02,22,15,00,13.00
2008,02,22,15,01,12.80
2008,02,22,15,02,12.70
2008,02,22,15,03,12.60
2008,02,22,15,04,12.60
2008,02,22,15,05,12.60
2008,02,22,15,06,12.50
2008,02,22,15,07,12.50
2008,02,22,15,08,12.40
2008,02,22,15,09,12.30
2008,02,22,15,10,12.20
2008,02,22,15,11,12.20
2008,02,22,15,12,12.20
2008,02,22,15,13,12.20
2008,02,22,15,14,12.20
2008,02,22,15,15,12.20
2008,02,22,15,16,12.20
2008,02,22,15,17,12.30
2008,02,22,15,18,12.20
2008,02,22,15,19,12.20
2008,02,22,15,20,12.20
2008,02,22,15,21,12.20
2008,02,22,15,22,12.10
2008,02,22,15,23,12.10
2008,02,22,15,24,12.10
2008,02,22,15,25,12.10
2008,02,22,15,26,12.10
2008,02,22,15,27,12.10
2008,02,22,15,28,12.10
2008,02,22,15,29,12.10
2008,02,22,15,30,12.00
2008,02,22,15,31,12.00
2008,02,22,15,32,12.10
2008,02,22,15,33,12.10
2008,02,22,15,34,12.10
2008,02,22,15,35,12.10
2008,02,22,15,36,12.10
2008,02,22,15,37,12.10
2008,02,22,15,38,12.10
2008,02,22,15,39,12.10
2008,02,22,15,40,12.10
2008,02,22,15,41,12.00
2008,02,22,15,42,12.00
2008,02,22,15,43,12.00
2008,02,22,15,44,11.90
2008,02,22,15,45,11.90
2008,02,22,15,46,11.90
2008,02,22,15,47,11.80
2008,02,22,15,48,11.80
2008,02,22,15,49,11.80
2008,02,22,15,50,11.80
2008,02,22,15,51,11.80
2008,02,22,15,52,11.70
2008,02,22,15,53,11.60
2008,02,22,15,54,11.60
2008,02,22,15,55,11.50
2008,02,22,15,56,11.40
2008,02,22,15,57,11.40
2008,02,22,15,58,11.30
2008,02,22,15,59,11.20
2008,02,22,16,00,11.20
2008,02,22,16,01,11.10
2008,02,22,16,02,11.10
2008,02,22,16,03,11.10
2008,02,22,16,04,11.10
2008,02,22,16,05,11.10
2008,02,22,16,06,11.10
2008,02,22,16,07,11.10
2008,02,22,16,08,11.10
2008,02,22,16,09,11.10
2008,02,22,16,10,11.10
2008,02,22,16,11,11.10
2008,02,22,16,12,11.10
2008,02,22,16,13,11.10
2008,02,22,16,14,11.10
2008,02,22,16,15,11.10
2008,02,22,16,16,11.10
2008,02,22,16,17,11.10
2008,02,22,16,18,11.10
2008,02,22,16,19,11.10
2008,02,22,16,20,11.10
2008,02,22,16,21,11.10
2008,02,22,16,22,11.10
2008,02,22,16,23,11.10
2008,02,22,16,24,11.10
2008,02,22,16,25,11.10
2008,02,22,16,26,11.10
2008,02,22,16,27,11.20
2008,02,22,16,28,11.20
2008,02,22,16,29,11.20
2008,02,22,16,30,11.20
2008,02,22,16,31,11.10
2008,02,22,16,32,11.10
2008,02,22,16,33,11.10
2008,02,22,16,34,11.10
2008,02,22,16,35,11.10
2008,02,22,16,36,11.10
2008,02,22,16,37,11.10
2008,02,22,16,38,11.10
2008,02,22,16,39,11.10
2008,02,22,16,40,11.10
2008,02,22,16,41,11.10
2008,02,22,16,42,11.10
2008,02,22,16,43,11.10
2008,02,22,16,44,11.10
2008,02,22,16,45,11.00
2008,02,22,16,46,11.00
2008,02,22,16,47,11.10
2008,02,22,16,48,11.10
2008,02,22,16,49,11.10
2008,02,22,16,50,11.10
2008,02,22,16,51,11.10
2008,02,22,16,52,11.10
2008,02,22,16,53,11.10
2008,02,22,16,54,11.10
2008,02,22,16,55,11.10
2008,02,22,16,56,11.10
2008,02,22,16,57,11.10
2008,02,22,16,58,11.10
2008,02,22,16,59,11.10
2008,02,22,17,00,11.10
2008,02,22,17,01,11.00
2008,02,22,17,02,10.90
2008,02,22,17,03,10.90
2008,02,22,17,04,10.90
2008,02,22,17,05,10.90
2008,02,22,17,06,10.80
2008,02,22,17,07,10.80
2008,02,22,17,08,10.80
2008,02,22,17,09,10.80
2008,02,22,17,10,10.70
2008,02,22,17,11,10.70
2008,02,22,17,12,10.70
2008,02,22,17,13,10.70
2008,02,22,17,14,10.70
2008,02,22,17,15,10.70
2008,02,22,17,16,10.70
2008,02,22,17,17,10.70
2008,02,22,17,18,10.60
2008,02,22,17,19,10.60
2008,02,22,17,20,10.60
2008,02,22,17,21,10.60
2008,02,22,17,22,10.60
2008,02,22,17,23,10.40
2008,02,22,17,24,10.40
2008,02,22,17,25,10.40
2008,02,22,17,26,10.30
2008,02,22,17,27,10.30
2008,02,22,17,28,10.20
2008,02,22,17,29,10.10
2008,02,22,17,30,10.10
2008,02,22,17,31,10.10
2008,02,22,17,32,10.00
2008,02,22,17,33,9.90
2008,02,22,17,34,9.90
2008,02,22,17,35,9.90
2008,02,22,17,36,9.90
2008,02,22,17,37,9.90
2008,02,22,17,38,9.80
2008,02,22,17,39,9.80
2008,02,22,17,40,9.70
2008,02,22,17,41,9.70
2008,02,22,17,42,9.70
2008,02,22,17,43,9.60
2008,02,22,17,44,9.60
2008,02,22,17,45,9.60
2008,02,22,17,46,9.60
2008,02,22,17,47,9.50
2008,02,22,17,48,9.50
2008,02,22,17,49,9.50